| time (UTC) | temp F | wind direction | speed knots | gust knots | rain 1hr in | rain 24hr in | rain mn in | humidity % | barometer mb |
| 20260507221515 | 61 | 222 | 3.5 | 4.3 | 0.00 | 0.20 | 0.20 | 57 | 1042.2 |
| 20260507220515 | 60 | 226 | 3.5 | 4.3 | 0.00 | 0.20 | 0.20 | 58 | 1043.0 |
| 20260507215534 | 59 | 230 | 3.5 | 3.5 | 0.00 | 0.20 | 0.20 | 58 | 1043.7 |
| 20260507214515 | 59 | 233 | 3.5 | 3.5 | 0.00 | 0.20 | 0.20 | 59 | 1044.4 |
| 20260507213534 | 58 | 237 | 2.6 | 3.5 | 0.00 | 0.20 | 0.20 | 60 | 1045.1 |
| 20260507212515 | 57 | 241 | 2.6 | 3.5 | 0.00 | 0.20 | 0.20 | 60 | 1045.8 |
| 20260507211515 | 56 | 245 | 2.6 | 3.5 | 0.00 | 0.20 | 0.20 | 61 | 1046.5 |
| 20260507210515 | 55 | 248 | 2.6 | 3.5 | 0.00 | 0.20 | 0.20 | 61 | 1047.2 |
| 20260507205515 | 54 | 252 | 2.6 | 3.5 | 0.00 | 0.20 | 0.20 | 62 | 1047.9 |
| 20260507204535 | 54 | 255 | 2.6 | 3.5 | 0.00 | 0.20 | 0.20 | 63 | 1048.6 |
| 20260507203515 | 53 | 259 | 2.6 | 2.6 | 0.00 | 0.20 | 0.20 | 63 | 1049.2 |
| 20260507202535 | 52 | 263 | 2.6 | 2.6 | 0.00 | 0.20 | 0.20 | 64 | 1049.9 |
| 20260507201636 | 51 | 266 | 2.6 | 2.6 | 0.00 | 0.20 | 0.20 | 64 | 1050.6 |
| 20260507200515 | 50 | 269 | 2.6 | 2.6 | 0.00 | 0.20 | 0.20 | 65 | 1051.2 |
| 20260507195515 | 49 | 273 | 1.7 | 2.6 | 0.00 | 0.20 | 0.20 | 65 | 1051.9 |
| 20260507194515 | 48 | 276 | 1.7 | 2.6 | 0.00 | 0.20 | 0.20 | 66 | 1052.5 |
| 20260507193515 | 48 | 279 | 1.7 | 2.6 | 0.00 | 0.20 | 0.20 | 67 | 1053.1 |
| 20260507192515 | 47 | 283 | 1.7 | 2.6 | 0.00 | 0.20 | 0.20 | 67 | 1053.8 |
| 20260507191515 | 46 | 286 | 1.7 | 1.7 | 0.00 | 0.20 | 0.20 | 68 | 1054.4 |
| 20260507190554 | 45 | 289 | 1.7 | 1.7 | 0.00 | 0.20 | 0.20 | 68 | 1055.0 |
| 20260507185515 | 44 | 292 | 1.7 | 1.7 | 0.00 | 0.20 | 0.20 | 69 | 1055.6 |
| 20260507184515 | 43 | 295 | 1.7 | 1.7 | 0.00 | 0.20 | 0.20 | 69 | 1056.1 |
| 20260507183515 | 42 | 298 | 1.7 | 1.7 | 0.00 | 0.20 | 0.20 | 70 | 1056.7 |
| 20260507182554 | 42 | 301 | 1.7 | 1.7 | 0.00 | 0.20 | 0.20 | 70 | 1057.3 |
| 20260507181534 | 41 | 304 | 1.7 | 1.7 | 0.00 | 0.20 | 0.20 | 71 | 1057.8 |
| 20260507180515 | 40 | 307 | 0.9 | 1.7 | 0.00 | 0.20 | 0.20 | 71 | 1058.3 |
| 20260507175515 | 39 | 310 | 0.9 | 1.7 | 0.00 | 0.20 | 0.20 | 72 | 1058.9 |
| 20260507174515 | 39 | 312 | 0.9 | 1.7 | 0.00 | 0.20 | 0.20 | 72 | 1059.4 |
| 20260507173514 | 38 | 315 | 0.9 | 1.7 | 0.00 | 0.20 | 0.20 | 72 | 1059.9 |
| 20260507172515 | 37 | 317 | 0.9 | 0.9 | 0.00 | 0.20 | 0.20 | 73 | 1060.4 |
| 20260507171534 | 37 | 320 | 0.9 | 0.9 | 0.00 | 0.20 | 0.20 | 73 | 1060.9 |
| 20260507170515 | 36 | 322 | 0.9 | 0.9 | 0.00 | 0.20 | 0.20 | 74 | 1061.3 |
| 20260507165515 | 35 | 325 | 0.9 | 0.9 | 0.00 | 0.20 | 0.20 | 74 | 1061.8 |
| 20260507164515 | 35 | 327 | 0.9 | 0.9 | 0.00 | 0.20 | 0.20 | 75 | 1062.2 |
| 20260507163515 | 34 | 329 | 0.9 | 0.9 | 0.00 | 0.20 | 0.20 | 75 | 1062.6 |
| 20260507162534 | 34 | 331 | 0.9 | 0.9 | 0.00 | 0.20 | 0.20 | 75 | 1063.0 |
| 20260507161515 | 33 | 334 | 0.9 | 0.9 | 0.00 | 0.20 | 0.20 | 76 | 1063.4 |
| 20260507160534 | 33 | 336 | 0.9 | 0.9 | 0.00 | 0.20 | 0.20 | 76 | 1063.8 |
| 20260507155534 | 32 | 337 | 0.9 | 0.9 | 0.00 | 0.20 | 0.20 | 76 | 1064.2 |
| 20260507154515 | 32 | 339 | 0.9 | 0.9 | 0.00 | 0.20 | 0.20 | 77 | 1064.5 |
| 20260507153534 | 32 | 341 | 0.9 | 0.9 | 0.00 | 0.20 | 0.20 | 77 | 1064.9 |
| 20260507152534 | 31 | 343 | 0.0 | 0.9 | 0.00 | 0.20 | 0.20 | 77 | 1065.2 |
| 20260507151515 | 31 | 344 | 0.0 | 0.9 | 0.00 | 0.20 | 0.20 | 77 | 1065.5 |
| 20260507150515 | 31 | 346 | 0.0 | 0.0 | 0.00 | 0.20 | 0.20 | 78 | 1065.8 |
| 20260507145515 | 31 | 348 | 0.0 | 0.0 | 0.00 | 0.20 | 0.20 | 78 | 1066.1 |
| 20260507144515 | 30 | 349 | 0.0 | 0.0 | 0.00 | 0.20 | 0.20 | 78 | 1066.4 |
| 20260507143515 | 30 | 350 | 0.0 | 0.0 | 0.00 | 0.20 | 0.20 | 78 | 1066.6 |
| 20260507142515 | 30 | 351 | 0.0 | 0.0 | 0.00 | 0.20 | 0.20 | 79 | 1066.8 |
| 20260507141515 | 30 | 353 | 0.0 | 0.0 | 0.00 | 0.20 | 0.20 | 79 | 1067.1 |
| 20260507140554 | 30 | 354 | 0.0 | 0.0 | 0.00 | 0.20 | 0.20 | 79 | 1067.3 |
| 20260507135515 | 30 | 355 | 0.0 | 0.0 | 0.00 | 0.20 | 0.20 | 79 | 1067.5 |
| 20260507134515 | 30 | 356 | 0.0 | 0.0 | 0.00 | 0.20 | 0.20 | 79 | 1067.6 |
| 20260507133534 | 30 | 356 | 0.0 | 0.0 | 0.00 | 0.20 | 0.20 | 79 | 1067.8 |
| 20260507132613 | 30 | 357 | 0.0 | 0.0 | 0.00 | 0.20 | 0.20 | 80 | 1067.9 |
| 20260507131515 | 30 | 358 | 0.0 | 0.0 | 0.00 | 0.20 | 0.20 | 80 | 1068.1 |
| 20260507130515 | 31 | 358 | 0.0 | 0.0 | 0.00 | 0.20 | 0.20 | 80 | 1068.2 |
| 20260507125515 | 31 | 359 | 0.0 | 0.0 | 0.00 | 0.20 | 0.20 | 80 | 1068.3 |
| 20260507124515 | 31 | 359 | 0.0 | 0.0 | 0.00 | 0.20 | 0.20 | 80 | 1068.3 |
| 20260507123515 | 31 | 360 | 0.0 | 0.0 | 0.00 | 0.20 | 0.20 | 80 | 1068.4 |
| 20260507122535 | 32 | 360 | 0.0 | 0.0 | 0.00 | 0.20 | 0.20 | 80 | 1068.4 |
| 20260507121515 | 32 | 360 | 0.0 | 0.0 | 0.00 | 0.20 | 0.20 | 80 | 1068.5 |
| 20260507120515 | 33 | 360 | 0.0 | 0.0 | 0.00 | 0.20 | 0.20 | 80 | 1068.5 |
| 20260507115036 | 31 | 359 | 0.0 | 0.0 | 0.00 | 0.20 | 0.20 | 80 | 1068.4 |
| 20260507114016 | 32 | 360 | 0.0 | 0.0 | 0.00 | 0.20 | 0.20 | 80 | 1068.4 |
| 20260507113016 | 32 | 360 | 0.0 | 0.0 | 0.00 | 0.20 | 0.20 | 80 | 1068.4 |
| 20260507112016 | 32 | 360 | 0.0 | 0.0 | 0.00 | 0.20 | 0.20 | 80 | 1068.5 |
| 20260507111017 | 33 | 360 | 0.0 | 0.0 | 0.00 | 0.20 | 0.20 | 80 | 1068.5 |
| 20260507110515 | 64 | 289 | 1.7 | 1.7 | 0.00 | 0.20 | 0.20 | 68 | 1055.0 |
| 20260507105515 | 65 | 286 | 1.7 | 1.7 | 0.00 | 0.20 | 0.20 | 68 | 1054.4 |
| 20260507104554 | 65 | 283 | 1.7 | 2.6 | 0.00 | 0.20 | 0.20 | 67 | 1053.8 |
| 20260507103515 | 66 | 280 | 1.7 | 2.6 | 0.00 | 0.20 | 0.20 | 67 | 1053.2 |
| 20260507103053 | 66 | 276 | 1.7 | 2.6 | 0.00 | 0.20 | 0.20 | 66 | 1052.5 |
| 20260507020535 | 50 | 90 | 7.0 | 7.8 | 0.00 | 0.20 | 0.20 | 35 | 1017.0 |
| 20260507015534 | 49 | 86 | 7.0 | 7.8 | 0.00 | 0.20 | 0.20 | 34 | 1016.4 |
| 20260507014515 | 48 | 83 | 7.0 | 7.8 | 0.00 | 0.20 | 0.20 | 34 | 1015.7 |
| 20260507013515 | 47 | 80 | 7.0 | 7.8 | 0.00 | 0.20 | 0.20 | 33 | 1015.1 |
| 20260507012515 | 46 | 76 | 7.0 | 7.8 | 0.00 | 0.20 | 0.20 | 33 | 1014.5 |
| 20260507011515 | 46 | 73 | 7.0 | 8.7 | 0.00 | 0.20 | 0.20 | 32 | 1013.9 |
| 20260507010515 | 45 | 70 | 7.0 | 8.7 | 0.00 | 0.20 | 0.20 | 32 | 1013.3 |
| 20260507005515 | 44 | 67 | 7.0 | 8.7 | 0.00 | 0.20 | 0.20 | 31 | 1012.7 |
| 20260507004554 | 43 | 64 | 7.0 | 8.7 | 0.00 | 0.20 | 0.20 | 31 | 1012.1 |
| 20260507003515 | 42 | 61 | 7.0 | 8.7 | 0.00 | 0.20 | 0.20 | 30 | 1011.6 |
| 20260507002515 | 41 | 58 | 7.0 | 8.7 | 0.00 | 0.20 | 0.20 | 30 | 1011.0 |
| 20260507001515 | 41 | 55 | 7.0 | 8.7 | 0.00 | 0.20 | 0.20 | 29 | 1010.5 |
| 20260507000515 | 40 | 52 | 7.8 | 8.7 | 0.00 | 0.20 | 0.20 | 29 | 1009.9 |
| 20260506235515 | 39 | 50 | 7.8 | 8.7 | 0.00 | 0.20 | 0.20 | 28 | 1009.4 |
| 20260506234515 | 38 | 47 | 7.8 | 8.7 | 0.00 | 0.20 | 0.20 | 28 | 1008.9 |
| 20260506233532 | 38 | 44 | 7.8 | 9.6 | 0.00 | 0.20 | 0.20 | 27 | 1008.4 |
| 20260506232515 | 37 | 42 | 7.8 | 9.6 | 0.00 | 0.20 | 0.20 | 27 | 1007.9 |
| 20260506231515 | 36 | 39 | 7.8 | 9.6 | 0.00 | 0.20 | 0.20 | 27 | 1007.4 |
| 20260506230535 | 36 | 37 | 7.8 | 9.6 | 0.00 | 0.20 | 0.20 | 26 | 1007.0 |
| 20260506225554 | 35 | 35 | 7.8 | 9.6 | 0.00 | 0.20 | 0.20 | 26 | 1006.5 |
| 20260506224515 | 35 | 32 | 7.8 | 9.6 | 0.00 | 0.20 | 0.20 | 25 | 1006.1 |
| 20260506223515 | 34 | 30 | 7.8 | 9.6 | 0.00 | 0.20 | 0.20 | 25 | 1005.7 |
| 20260506222515 | 34 | 28 | 7.8 | 9.6 | 0.00 | 0.20 | 0.20 | 25 | 1005.3 |